TimeEST,TemperatureF,Dew PointF,Humidity,Sea Level PressureIn,VisibilityMPH,Wind Direction,Wind SpeedMPH,Gust SpeedMPH,PrecipitationIn,Events,Conditions,WindDirDegrees,DateUTC
12:53 AM,36.0,34.0,93,30.35,10.0,Calm,Calm,-,N/A,,Clear,0,2011-11-07 05:53:00
1:53 AM,37.0,35.1,93,30.36,10.0,Calm,Calm,-,N/A,,Clear,0,2011-11-07 06:53:00
2:53 AM,35.1,34.0,96,30.36,10.0,Calm,Calm,-,N/A,,Clear,0,2011-11-07 07:53:00
3:53 AM,33.1,32.0,96,30.37,7.0,Calm,Calm,-,N/A,,Clear,0,2011-11-07 08:53:00
4:53 AM,34.0,32.0,92,30.38,6.0,Calm,Calm,-,N/A,,Clear,0,2011-11-07 09:53:00
5:53 AM,33.1,32.0,96,30.38,9.0,Calm,Calm,-,N/A,,Clear,0,2011-11-07 10:53:00
6:53 AM,34.0,33.1,96,30.40,6.0,Calm,Calm,-,N/A,,Clear,0,2011-11-07 11:53:00
7:53 AM,34.0,33.1,96,30.42,8.0,Calm,Calm,-,N/A,,Clear,0,2011-11-07 12:53:00
8:53 AM,42.1,39.0,89,30.43,10.0,ENE,3.5,-,N/A,,Clear,60,2011-11-07 13:53:00
9:53 AM,48.9,41.0,74,30.42,10.0,ENE,3.5,-,N/A,,Clear,60,2011-11-07 14:53:00
10:53 AM,55.0,43.0,64,30.41,10.0,East,3.5,-,N/A,,Clear,90,2011-11-07 15:53:00
11:53 AM,61.0,43.0,52,30.38,10.0,Calm,Calm,-,N/A,,Clear,0,2011-11-07 16:53:00
12:53 PM,63.0,44.1,50,30.33,10.0,Calm,Calm,-,N/A,,Clear,0,2011-11-07 17:53:00
1:53 PM,64.0,44.1,48,30.30,10.0,Calm,Calm,-,N/A,,Partly Cloudy,0,2011-11-07 18:53:00
2:53 PM,64.9,43.0,45,30.28,10.0,SSE,4.6,-,N/A,,Clear,160,2011-11-07 19:53:00
3:53 PM,66.0,42.1,42,30.27,10.0,Calm,Calm,-,N/A,,Clear,0,2011-11-07 20:53:00
4:53 PM,64.9,41.0,42,30.26,10.0,Calm,Calm,-,N/A,,Clear,0,2011-11-07 21:53:00
5:53 PM,55.9,42.1,60,30.27,10.0,Calm,Calm,-,N/A,,Clear,0,2011-11-07 22:53:00
6:53 PM,52.0,42.1,69,30.29,10.0,Calm,Calm,-,N/A,,Clear,0,2011-11-07 23:53:00
7:53 PM,46.9,41.0,80,30.29,10.0,Calm,Calm,-,N/A,,Clear,0,2011-11-08 00:53:00
8:53 PM,43.0,39.0,86,30.29,10.0,Calm,Calm,-,N/A,,Clear,0,2011-11-08 01:53:00
9:53 PM,42.1,39.0,89,30.29,10.0,Calm,Calm,-,N/A,,Clear,0,2011-11-08 02:53:00
10:53 PM,42.1,39.0,89,30.27,10.0,Calm,Calm,-,N/A,,Clear,0,2011-11-08 03:53:00
11:53 PM,39.9,37.9,93,30.26,10.0,Calm,Calm,-,N/A,,Clear,0,2011-11-08 04:53:00